Regional Weather Roundup
Issued by NWS

Home | Current Version | Previous Version | Text Only | Print | Product List | Glossary On
Versions: 1 2 3 4 5 6 7 8 9 10 11 12 13 14 15 16 17 18 19 20 21 22 23 24 25 26 27 28 29 30 31 32 33 34 35 36 37 38 39 40 41 42 43 44 45 46 47 48 49 50
000
ASUS43 KLSX 030859
RWRMO

WEATHER SUMMARY FOR MISSOURI
NATIONAL WEATHER SERVICE SPRINGFIELD MO
300 AM CST TUE MAR 03 2015

NOTE: "FAIR" INDICATES FEW OR NO CLOUDS BELOW 12,000 FEET WITH NO
       SIGNIFICANT WEATHER AND/OR OBSTRUCTIONS TO VISIBILITY.
       CURRENT SKY AND/OR WEATHER CONDITIONS ARE NOT AVAILABLE FOR
       CHILLICOTHE AND FARMINGTON.

MOZ001>031-035>038-043-044-053-054-031000-
...NORTHERN AND WESTERN MISSOURI...

CITY           SKY/WX    TMP DP  RH WIND       PRES   REMARKS
KANSAS CTY INT DRIZZLE   33  32  96 S15       29.84F WCI  23
KANSAS C DTWN  CLOUDY    35  32  88 S12       29.88F WCI  27
LEE`S SUMMIT   CLOUDY    33  31  92 S12       29.88F FOG     WCI  24
ST JOSEPH      CLOUDY    34  30  85 S13       29.84F WCI  25
CHILLICOTHE      N/A     33  26  75 S12       29.92F WCI  24
KIRKSVILLE     CLOUDY    29  26  89 SE15      29.92F WCI  18

$$
MOZ066>068-077>081-088>096-101>105-031000-
...SOUTHWEST MISSOURI...

CITY           SKY/WX    TMP DP  RH WIND       PRES   REMARKS
SPRINGFIELD    CLOUDY    33  27  78 SE20      29.94F WCI  21
JOPLIN         CLOUDY    37  33  85 S15       29.92F WCI  28

$$
MOZ032>034-039>042-045>050-055>058-069>072-031000-
...CENTRAL MISSOURI...

CITY           SKY/WX    TMP DP  RH WIND       PRES   REMARKS
COLUMBIA       CLOUDY    33  23  66 SE7       29.95F WCI  27
JEFFERSON CITY CLOUDY    36  25  64 SE8       29.98F WCI  30
ROLLA          CLOUDY    34  27  75 S16       29.94F WCI  24
SEDALIA        CLOUDY    36  27  69 S9        29.94F WCI  29
OSAGE BEACH    CLOUDY    36  27  69 S8        29.95F WCI  29

$$
MOZ051-052-059>065-031000-
...EAST CENTRAL MISSOURI...

CITY           SKY/WX    TMP DP  RH WIND       PRES   REMARKS
ST LOUIS INTL  CLOUDY    34  23  64 SE7       30.04F WCI  28
SPIRIT OF STL  CLOUDY    33  23  66 CALM      30.02F
ST CHARLES     CLOUDY    32  24  72 SE7       30.03F WCI  26

$$
MOZ072>076-082>087-097>100-106>115-031000-
...SOUTH CENTRAL AND SOUTHEAST MISSOURI...

CITY           SKY/WX    TMP DP  RH WIND       PRES   REMARKS
CAPE GIRARDEAU CLOUDY    35  27  72 SE6       30.09F
FARMINGTON     CLOUDY    34  23  64 S12       30.05F WCI  25
POPLAR BLUFF   CLOUDY    34  25  69 S3        30.08F
WEST PLAINS    CLOUDY    31  27  85 S9        30.03F FOG     WCI  23

$$


USA.gov is the U.S. government's official web portal to all federal, state and local government web resources and services.